Location: Chavannes
(47.1090°N, 0.2226°W)
Time: 13:30:04
(UTC+00:00)

Meteor 1-21 Rocket - Pass Details

Date: 16 October 2021
Orbit: 834 x 906 km, 81.2° (Epoch: 02 December)

Event Time Altitude Azimuth Distance (km) Brightness Sun altitude
Rises 18:15:08 0° 350° (N) 3,488 7.5 -11.6°
Reaches altitude 10° 18:17:35 10° 352° (N) 2,556 6.8 -12.0°
Maximum altitude 18:23:25 72° 77° (ENE) 943 4.3 -13.0°
Drops below altitude 10° 18:29:17 10° 162° (SSE) 2,575 6.5 -14.0°
Sets 18:31:46 0° 164° (SSE) 3,516 7.2 -14.4°
